Location: Jaite
(41.2884°N, 81.5737°W)
Time: 13:07:01
(UTC+00:00)

Cosmos 1190 Rocket - Pass Details

Date: 15 November 2025
Orbit: 752 x 775 km, 74.1° (Epoch: 06 December)

Event Time Altitude Azimuth Distance (km) Brightness Sun altitude
Exits shadow 10:15:26 32° 334° (NNW) 1,291 4.9 -22.4°
Maximum altitude 10:17:54 79° 253° (WSW) 783 3.8 -21.9°
Drops below altitude 10° 10:23:05 10° 167° (SSE) 2,286 6.7 -21.0°
Sets 10:25:26 0° 166° (SSE) 3,204 7.5 -20.5°
